Location: Presov
(49.0000°N, 21.2500°E)
Time: 22:00:38
(UTC+02:00)

Explorer 7 - All Passes

Search period start: 17 April 2021 00:00
Search period end: 27 April 2021 00:00
Orbit: 484 x 677 km, 50.3° (Epoch: 17 April)

Date Brightness Start Highest point End Pass type
(mag) Time Alt. Az. Time Alt. Az. Time Alt. Az.
17 Apr - 00:00:55 10° W 00:05:16 79° N 00:09:55 10° E night (unlit)
17 Apr - 01:41:29 10° WNW 01:46:01 86° NNE 01:50:47 10° ESE visible
17 Apr - 03:22:04 10° WNW 03:26:26 42° SSW 03:30:58 10° SE visible
17 Apr - 05:04:44 10° WSW 05:06:09 11° SW 05:07:36 10° SSW visible
17 Apr - 20:46:22 10° S 20:49:18 19° SE 20:52:20 10° E visible
17 Apr - 22:25:03 10° WSW 22:29:12 66° SSE 22:33:38 10° ENE visible
18 Apr - 00:05:26 10° W 00:09:47 74° N 00:14:26 10° E night (unlit)
18 Apr - 01:45:58 10° WNW 01:50:29 82° SSW 01:55:16 10° ESE visible
18 Apr - 03:26:41 10° W 03:30:45 30° SW 03:34:58 10° SSE visible
18 Apr - 20:50:03 10° SSW 20:53:31 27° SE 20:57:10 10° E visible
18 Apr - 22:29:27 10° WSW 22:33:38 82° SSE 22:38:08 10° ENE visible
19 Apr - 00:09:57 10° W 00:14:19 75° N 00:18:57 10° E visible
19 Apr - 01:50:27 10° WNW 01:54:56 66° SSW 01:59:39 10° ESE night (unlit)
19 Apr - 03:31:27 10° W 03:35:00 22° SW 03:38:40 10° S visible
19 Apr - 20:54:01 10° SW 20:57:48 38° SSE 21:01:49 10° E visible
19 Apr - 22:33:54 10° WSW 22:38:06 85° NNW 22:42:37 10° ENE visible
20 Apr - 00:14:27 10° W 00:18:50 79° N 00:23:29 10° E visible
20 Apr - 01:54:57 10° WNW 01:59:19 51° SSW 02:03:56 10° SE night (unlit)
20 Apr - 03:36:34 10° W 03:39:13 15° SW 03:41:55 10° S night (unlit)
20 Apr - 19:20:26 10° SSE 19:22:25 13° SE 19:24:29 10° ESE daylight
20 Apr - 20:58:12 10° SW 21:02:08 53° SSE 21:06:21 10° ENE visible
20 Apr - 22:38:24 10° W 22:42:36 77° N 22:47:07 10° E visible
21 Apr - 00:18:56 10° WNW 00:23:19 89° NNE 00:27:58 10° ESE visible
21 Apr - 01:59:30 10° W 02:03:41 38° SSW 02:08:04 10° SE night (unlit)
21 Apr - 19:23:39 10° S 19:26:36 20° SE 19:29:40 10° E daylight
21 Apr - 21:02:30 10° WSW 21:06:32 70° SSE 21:10:51 10° ENE visible
21 Apr - 22:42:55 10° W 22:47:07 74° N 22:51:38 10° E visible
22 Apr - 00:23:24 10° WNW 00:27:47 78° SSW 00:32:25 10° ESE visible
22 Apr - 02:04:08 10° W 02:07:59 27° SW 02:11:58 10° SSE night (unlit)
22 Apr - 19:27:24 10° SSW 19:30:49 29° SE 19:34:26 10° E daylight
22 Apr - 21:06:55 10° WSW 21:10:58 86° SSE 21:15:20 10° ENE visible
22 Apr - 22:47:25 10° W 22:51:38 75° N 22:56:09 10° E visible
23 Apr - 00:27:53 10° WNW 00:32:12 62° SSW 00:36:47 10° SE visible
23 Apr - 02:09:00 10° W 02:12:14 19° SW 02:15:34 10° S night (unlit)
23 Apr - 19:31:25 10° SW 19:35:08 40° SSE 19:39:03 10° E daylight
23 Apr - 21:11:23 10° W 21:15:27 82° NNW 21:19:48 10° ENE visible
23 Apr - 22:51:54 10° WNW 22:56:08 81° N 23:00:40 10° E visible
24 Apr - 00:32:23 10° WNW 00:36:35 46° SSW 00:41:02 10° SE visible
24 Apr - 02:14:19 10° WSW 02:16:25 13° SW 02:18:33 10° SSW night (unlit)
24 Apr - 17:57:34 10° S 17:59:43 14° SE 18:01:55 10° ESE daylight
24 Apr - 19:35:38 10° SW 19:39:29 56° SSE 19:43:35 10° ENE daylight
24 Apr - 21:15:53 10° W 21:19:57 75° N 21:24:19 10° E visible
24 Apr - 22:56:23 10° WNW 23:00:37 88° SSW 23:05:08 10° ESE visible
25 Apr - 00:36:57 10° W 00:40:55 34° SSW 00:45:06 10° SSE visible
25 Apr - 18:00:56 10° S 18:03:54 21° SE 18:06:59 10° E daylight
25 Apr - 19:39:58 10° WSW 19:43:52 73° SSE 19:48:04 10° ENE daylight
25 Apr - 21:20:23 10° W 21:24:27 73° N 21:28:49 10° E visible
25 Apr - 23:00:50 10° WNW 23:05:03 73° SSW 23:09:34 10° ESE visible
26 Apr - 00:41:39 10° W 00:45:12 24° SW 00:48:55 10° SSE visible
26 Apr - 18:04:44 10° SSW 18:08:08 30° SE 18:11:43 10° E daylight
26 Apr - 19:44:22 10° WSW 19:48:20 89° SE 19:52:32 10° ENE daylight
26 Apr - 21:24:52 10° W 21:28:57 75° N 21:33:20 10° E visible
26 Apr - 23:05:19 10° WNW 23:09:28 57° SSW 23:13:54 10° SE visible
